When you browse on this site, cookies collect data to enhance your experience and personalize the content and advertising you see.
Visit our Privacy Policy to learn more. By continuing to use the site, you agree to this use of cookies and data.
  • In Romania
  • List of Countries
  • For 7 days
  • Water Temperature
  • Satellite Maps
  • Weather Map
  • Weather Widgets
  • user-avatar
    Login

    Hourly Weather Seohara

    Today, 25 April, Thursday

    Time Temperature Precipitation Wind Pressure Humidity
    00:00 +31°C° 0 mm 1 mps 738 mmHg 28%
    01:00 +31°C° 0 mm 1 mps 738 mmHg 29%
    02:00 +30°C° 0 mm 1 mps 737 mmHg 30%
    03:00 +30°C° 0 mm 1 mps 737 mmHg 30%
    04:00 +29°C° 0 mm 1 mps 737 mmHg 30%
    05:00 +29°C° 0 mm 2 mps 737 mmHg 30%
    06:00 +31°C° 0 mm 2 mps 738 mmHg 28%
    07:00 +34°C° 0 mm 2 mps 738 mmHg 25%
    08:00 +36°C° 0 mm 2 mps 738 mmHg 23%
    09:00 +38°C° 0 mm 2 mps 738 mmHg 21%
    10:00 +40°C° 0 mm 2 mps 738 mmHg 19%
    11:00 +41°C° 0 mm 2 mps 738 mmHg 17%
    12:00 +43°C° 0 mm 3 mps 738 mmHg 15%
    13:00 +44°C° 0 mm 3 mps 737 mmHg 14%
    14:00 +46°C° 0 mm 3 mps 736 mmHg 12%
    15:00 +45°C° 0 mm 3 mps 736 mmHg 12%
    16:00 +45°C° 0 mm 3 mps 736 mmHg 11%
    17:00 +45°C° 0 mm 4 mps 735 mmHg 11%
    18:00 +43°C° 0 mm 3 mps 735 mmHg 12%
    19:00 +40°C° 0 mm 2 mps 736 mmHg 14%
    20:00 +37°C° 0 mm 1 mps 736 mmHg 15%
    21:00 +36°C° 0 mm 1 mps 736 mmHg 17%
    22:00 +35°C° 0 mm 1 mps 736 mmHg 18%
    23:00 +34°C° 0 mm 1 mps 736 mmHg 19%

    Tomorrow, 26 April, Friday

    Time Temperature Precipitation Wind Pressure Humidity
    00:00 +33°C° 0 mm 1 mps 736 mmHg 20%
    01:00 +32°C° 0 mm 1 mps 735 mmHg 21%
    02:00 +31°C° 0 mm 1 mps 735 mmHg 21%
    03:00 +31°C° 0 mm 1 mps 735 mmHg 21%
    04:00 +30°C° 0 mm 1 mps 735 mmHg 21%
    05:00 +30°C° 0 mm 1 mps 735 mmHg 22%
    06:00 +32°C° 0 mm 1 mps 735 mmHg 19%
    07:00 +34°C° 0 mm 1 mps 736 mmHg 17%
    08:00 +36°C° 0 mm 1 mps 736 mmHg 15%
    09:00 +39°C° 0 mm 1 mps 736 mmHg 14%
    10:00 +42°C° 0 mm 1 mps 736 mmHg 12%
    11:00 +44°C° 0 mm 1 mps 736 mmHg 11%
    12:00 +46°C° 0 mm 2 mps 736 mmHg 10%
    13:00 +46°C° 0 mm 3 mps 735 mmHg 9%
    14:00 +48°C° 0 mm 4 mps 734 mmHg 8%
    15:00 +48°C° 0 mm 4 mps 734 mmHg 8%
    16:00 +47°C° 0 mm 5 mps 734 mmHg 8%
    17:00 +47°C° 0 mm 5 mps 734 mmHg 8%
    18:00 +45°C° 0 mm 5 mps 734 mmHg 9%
    19:00 +41°C° 0 mm 4 mps 735 mmHg 11%
    20:00 +38°C° 0 mm 4 mps 735 mmHg 12%
    21:00 +37°C° 0 mm 3 mps 736 mmHg 13%
    22:00 +36°C° 0 mm 3 mps 736 mmHg 14%
    23:00 +35°C° 0 mm 3 mps 736 mmHg 15%

    Day after tomorrow, 27 April, Saturday

    Time Temperature Precipitation Wind Pressure Humidity
    00:00 +34°C° 0 mm 3 mps 736 mmHg 15%
    01:00 +34°C° 0 mm 3 mps 735 mmHg 16%
    02:00 +32°C° 0 mm 2 mps 735 mmHg 17%
    03:00 +31°C° 0 mm 2 mps 735 mmHg 16%
    04:00 +30°C° 0 mm 2 mps 735 mmHg 16%
    05:00 +30°C° 0 mm 2 mps 735 mmHg 16%
    06:00 +32°C° 0 mm 2 mps 735 mmHg 14%
    07:00 +35°C° 0 mm 2 mps 736 mmHg 12%
    08:00 +37°C° 0 mm 2 mps 736 mmHg 10%
    09:00 +40°C° 0 mm 3 mps 736 mmHg 9%
    10:00 +43°C° 0 mm 4 mps 736 mmHg 7%
    11:00 +47°C° 0 mm 6 mps 736 mmHg 5%
    12:00 +47°C° 0 mm 6 mps 735 mmHg 4%
    13:00 +49°C° 0 mm 7 mps 735 mmHg 4%
    14:00 +50°C° 0 mm 7 mps 734 mmHg 3%
    15:00 +49°C° 0 mm 8 mps 734 mmHg 3%
    16:00 +48°C° 0 mm 8 mps 733 mmHg 4%
    17:00 +46°C° 0 mm 8 mps 733 mmHg 4%
    18:00 +44°C° 0 mm 7 mps 733 mmHg 6%
    19:00 +41°C° 0 mm 5 mps 734 mmHg 7%
    20:00 +38°C° 0 mm 4 mps 735 mmHg 9%
    21:00 +37°C° 0 mm 4 mps 735 mmHg 9%
    22:00 +36°C° 0 mm 4 mps 735 mmHg 10%
    23:00 +35°C° 0 mm 4 mps 735 mmHg 10%

    28 April, Sunday

    Time Temperature Precipitation Wind Pressure Humidity
    00:00 +34°C° 0 mm 4 mps 734 mmHg 11%
    01:00 +33°C° 0 mm 3 mps 734 mmHg 11%
    02:00 +31°C° 0 mm 3 mps 733 mmHg 11%
    03:00 +30°C° 0 mm 3 mps 733 mmHg 11%
    04:00 +30°C° 0 mm 2 mps 733 mmHg 11%
    05:00 +29°C° 0 mm 2 mps 733 mmHg 11%
    06:00 +31°C° 0 mm 2 mps 734 mmHg 9%
    07:00 +35°C° 0 mm 2 mps 734 mmHg 8%
    08:00 +37°C° 0 mm 2 mps 734 mmHg 7%
    09:00 +40°C° 0 mm 3 mps 735 mmHg 6%
    10:00 +43°C° 0 mm 4 mps 735 mmHg 5%
    11:00 +47°C° 0 mm 5 mps 735 mmHg 4%
    12:00 +48°C° 0 mm 5 mps 734 mmHg 4%
    13:00 +48°C° 0 mm 6 mps 733 mmHg 3%
    14:00 +49°C° 0 mm 6 mps 732 mmHg 3%
    15:00 +48°C° 0 mm 6 mps 732 mmHg 3%
    16:00 +48°C° 0 mm 6 mps 732 mmHg 3%
    17:00 +47°C° 0 mm 7 mps 732 mmHg 3%
    18:00 +45°C° 0 mm 5 mps 732 mmHg 4%
    19:00 +41°C° 0 mm 4 mps 733 mmHg 5%
    20:00 +37°C° 0 mm 3 mps 734 mmHg 6%
    21:00 +36°C° 0 mm 3 mps 734 mmHg 7%
    22:00 +35°C° 0 mm 2 mps 734 mmHg 8%
    23:00 +34°C° 0 mm 2 mps 734 mmHg 8%

    29 April, Monday

    Time Temperature Precipitation Wind Pressure Humidity
    00:00 +32°C° 0 mm 2 mps 734 mmHg 9%
    01:00 +32°C° 0 mm 2 mps 733 mmHg 9%
    02:00 +31°C° 0 mm 2 mps 733 mmHg 10%
    03:00 +30°C° 0 mm 1 mps 733 mmHg 10%
    04:00 +30°C° 0 mm 1 mps 733 mmHg 9%
    05:00 +27°C° 0 mm 0 mps 733 mmHg 9%
    06:00 +32°C° 0 mm 1 mps 734 mmHg 9%
    07:00 +34°C° 0 mm 1 mps 734 mmHg 8%
    08:00 +36°C° 0 mm 1 mps 735 mmHg 7%
    09:00 +40°C° 0 mm 1 mps 735 mmHg 6%
    10:00 +42°C° 0 mm 1 mps 735 mmHg 6%
    11:00 +45°C° 0 mm 1 mps 735 mmHg 5%
    12:00 +46°C° 0 mm 2 mps 734 mmHg 5%
    13:00 +48°C° 0 mm 4 mps 733 mmHg 4%
    14:00 +49°C° 0 mm 5 mps 733 mmHg 4%
    15:00 +49°C° 0 mm 5 mps 732 mmHg 4%
    16:00 +48°C° 0 mm 5 mps 732 mmHg 5%
    17:00 +48°C° 0 mm 5 mps 732 mmHg 5%
    18:00 +44°C° 0 mm 4 mps 732 mmHg 6%
    19:00 +42°C° 0 mm 3 mps 733 mmHg 7%
    20:00 +38°C° 0 mm 2 mps 733 mmHg 8%
    21:00 +37°C° 0 mm 2 mps 733 mmHg 9%
    22:00 +36°C° 0 mm 2 mps 734 mmHg 9%
    23:00 +35°C° 0 mm 2 mps 734 mmHg 10%

    30 April, Tuesday

    Time Temperature Precipitation Wind Pressure Humidity
    00:00 +33°C° 0 mm 1 mps 733 mmHg 10%
    01:00 +33°C° 0 mm 1 mps 733 mmHg 10%
    02:00 +32°C° 0 mm 1 mps 732 mmHg 10%
    03:00 +31°C° 0 mm 1 mps 732 mmHg 10%
    04:00 +31°C° 0 mm 1 mps 733 mmHg 10%
    05:00 +30°C° 0 mm 1 mps 733 mmHg 9%
    06:00 +33°C° 0 mm 1 mps 733 mmHg 8%
    07:00 +36°C° 0 mm 2 mps 734 mmHg 7%
    08:00 +39°C° 0 mm 2 mps 734 mmHg 6%
    09:00 +41°C° 0 mm 2 mps 734 mmHg 6%
    10:00 +45°C° 0 mm 2 mps 734 mmHg 5%
    11:00 +47°C° 0 mm 2 mps 734 mmHg 5%
    12:00 +48°C° 0 mm 2 mps 733 mmHg 4%
    13:00 +48°C° 0 mm 2 mps 732 mmHg 4%
    14:00 +49°C° 0 mm 2 mps 731 mmHg 4%
    15:00 +48°C° 0 mm 2 mps 731 mmHg 4%
    16:00 +47°C° 0 mm 1 mps 731 mmHg 4%
    17:00 +47°C° 0 mm 1 mps 730 mmHg 4%
    18:00 +44°C° 0 mm 1 mps 731 mmHg 5%
    19:00 +41°C° 0 mm 2 mps 731 mmHg 6%
    20:00 +39°C° 0 mm 2 mps 732 mmHg 7%
    21:00 +38°C° 0 mm 2 mps 732 mmHg 7%
    22:00 +37°C° 0 mm 2 mps 732 mmHg 7%
    23:00 +36°C° 0 mm 2 mps 732 mmHg 8%
    Show more